Time,TemperatureF,DewpointF,PressureIn,WindDirection,WindDirectionDegrees,WindSpeedMPH,WindSpeedGustMPH,Humidity,HourlyPrecipIn,Conditions,Clouds,dailyrainin,SolarRadiationWatts/m^2,SoftwareType,DateUTC
2014-12-26 00:04:00,45.3,38.2,30.10,WNW,296,6.2,9.2,76,0.00,CLR,,0.00,0.0,WeatherDisplay:10.37,2014-12-26 08:04:00,
2014-12-26 00:09:00,45.2,38.1,30.10,WNW,290,5.8,8.1,76,0.00,CLR,,0.00,0.0,WeatherDisplay:10.37,2014-12-26 08:09:00,
2014-12-26 00:14:00,45.1,38.3,30.10,NW,310,8.1,11.5,77,0.00,CLR,,0.00,0.0,WeatherDisplay:10.37,2014-12-26 08:14:00,
2014-12-26 00:19:00,45.0,37.9,30.10,West,276,9.5,10.4,76,0.00,CLR,,0.00,0.0,WeatherDisplay:10.37,2014-12-26 08:19:00,
2014-12-26 00:24:00,45.0,38.2,30.10,NW,308,7.2,11.5,77,0.00,CLR,,0.00,0.0,WeatherDisplay:10.37,2014-12-26 08:24:00,
2014-12-26 00:29:00,45.0,38.2,30.10,WNW,291,7.2,11.5,77,0.00,CLR,,0.00,0.0,WeatherDisplay:10.37,2014-12-26 08:29:00,
2014-12-26 00:34:00,45.0,37.9,30.10,WNW,295,6.9,11.5,76,0.00,CLR,,0.00,0.0,WeatherDisplay:10.37,2014-12-26 08:34:00,
2014-12-26 00:39:00,45.0,38.2,30.10,WNW,288,8.8,11.5,77,0.00,CLR,,0.00,0.0,WeatherDisplay:10.37,2014-12-26 08:39:00,
2014-12-26 00:44:00,45.0,38.2,30.10,West,280,8.8,11.5,77,0.00,CLR,,0.00,0.0,WeatherDisplay:10.37,2014-12-26 08:44:00,
2014-12-26 00:49:00,44.9,38.1,30.10,West,277,7.9,10.4,77,0.00,CLR,,0.00,0.0,WeatherDisplay:10.37,2014-12-26 08:49:00,
2014-12-26 00:54:00,44.9,38.1,30.10,WNW,291,9.3,11.5,77,0.00,CLR,,0.00,0.0,WeatherDisplay:10.37,2014-12-26 08:54:00,
2014-12-26 00:59:00,45.0,38.2,30.10,WNW,284,9.4,11.5,77,0.00,CLR,,0.00,0.0,WeatherDisplay:10.37,2014-12-26 08:59:00,
2014-12-26 01:04:00,45.0,37.9,30.11,West,267,7.2,11.5,76,0.00,CLR,,0.00,0.0,WeatherDisplay:10.37,2014-12-26 09:04:00,
2014-12-26 01:09:00,45.1,38.0,30.11,West,259,8.2,12.7,76,0.00,CLR,,0.00,0.0,WeatherDisplay:10.37,2014-12-26 09:09:00,
2014-12-26 01:14:00,45.1,37.6,30.11,WNW,282,8.0,10.4,75,0.00,CLR,,0.00,0.0,WeatherDisplay:10.37,2014-12-26 09:14:00,
2014-12-26 01:19:00,45.1,37.6,30.11,West,269,6.2,9.2,75,0.00,CLR,,0.00,0.0,WeatherDisplay:10.37,2014-12-26 09:19:00,
2014-12-26 01:24:00,45.1,37.6,30.11,WNW,292,5.3,8.1,75,0.00,CLR,,0.00,0.0,WeatherDisplay:10.37,2014-12-26 09:24:00,
2014-12-26 01:29:00,45.0,37.6,30.11,West,270,7.6,9.0,75,0.00,CLR,,0.00,0.0,WeatherDisplay:10.37,2014-12-26 09:29:00,
2014-12-26 01:34:00,45.0,37.6,30.10,West,270,7.7,10.4,75,0.00,CLR,,0.00,0.0,WeatherDisplay:10.37,2014-12-26 09:34:00,
2014-12-26 01:39:00,45.0,37.6,30.10,West,280,9.3,11.5,75,0.00,CLR,,0.00,0.0,WeatherDisplay:10.37,2014-12-26 09:39:00,
2014-12-26 01:44:00,45.0,37.6,30.11,WNW,291,9.2,11.5,75,0.00,CLR,,0.00,0.0,WeatherDisplay:10.37,2014-12-26 09:44:00,
2014-12-26 01:49:00,44.9,37.5,30.11,West,274,6.6,9.2,75,0.00,CLR,,0.00,0.0,WeatherDisplay:10.37,2014-12-26 09:49:00,
2014-12-26 01:54:00,44.7,37.3,30.11,WNW,282,5.8,8.1,75,0.00,CLR,,0.00,0.0,WeatherDisplay:10.37,2014-12-26 09:54:00,
2014-12-26 01:59:00,44.6,37.2,30.11,NW,306,4.8,6.9,75,0.00,CLR,,0.00,0.0,WeatherDisplay:10.37,2014-12-26 09:59:00,
2014-12-26 02:04:00,44.4,37.0,30.11,WNW,288,5.1,9.2,75,0.00,CLR,,0.00,0.0,WeatherDisplay:10.37,2014-12-26 10:04:00,
2014-12-26 02:09:00,44.2,36.8,30.11,NW,308,7.2,9.2,75,0.00,CLR,,0.00,0.0,WeatherDisplay:10.37,2014-12-26 10:09:00,
2014-12-26 02:14:00,44.1,36.7,30.12,WNW,297,5.7,8.1,75,0.00,CLR,,0.00,0.0,WeatherDisplay:10.37,2014-12-26 10:14:00,
2014-12-26 02:19:00,44.0,36.6,30.12,WNW,298,4.5,9.2,75,0.00,CLR,,0.00,0.0,WeatherDisplay:10.37,2014-12-26 10:19:00,
2014-12-26 02:24:00,44.0,36.6,30.12,NW,309,5.5,6.9,75,0.00,CLR,,0.00,0.0,WeatherDisplay:10.37,2014-12-26 10:24:00,
2014-12-26 02:29:00,43.9,36.5,30.12,WNW,282,5.6,9.2,75,0.00,CLR,,0.00,0.0,WeatherDisplay:10.37,2014-12-26 10:29:00,
2014-12-26 02:34:00,43.8,36.4,30.12,WNW,284,6.4,8.1,75,0.00,CLR,,0.00,0.0,WeatherDisplay:10.37,2014-12-26 10:34:00,
2014-12-26 02:39:00,43.7,36.3,30.12,WNW,282,3.6,3.6,75,0.00,CLR,,0.00,0.0,WeatherDisplay:10.37,2014-12-26 10:39:00,
2014-12-26 02:44:00,43.7,36.0,30.12,West,266,3.6,4.6,74,0.00,CLR,,0.00,0.0,WeatherDisplay:10.37,2014-12-26 10:44:00,
2014-12-26 02:49:00,43.7,36.0,30.12,West,279,4.7,5.0,74,0.00,CLR,,0.00,0.0,WeatherDisplay:10.37,2014-12-26 10:49:00,
2014-12-26 02:54:00,43.7,36.0,30.12,WNW,285,5.2,5.8,74,0.00,CLR,,0.00,0.0,WeatherDisplay:10.37,2014-12-26 10:54:00,
2014-12-26 02:59:00,43.8,35.7,30.12,West,281,6.6,9.2,73,0.00,CLR,,0.00,0.0,WeatherDisplay:10.37,2014-12-26 10:59:00,
2014-12-26 03:04:00,43.8,35.7,30.12,WNW,297,7.4,9.2,73,0.00,CLR,,0.00,0.0,WeatherDisplay:10.37,2014-12-26 11:04:00,
2014-12-26 03:09:00,43.8,35.7,30.12,West,279,7.5,9.2,73,0.00,CLR,,0.00,0.0,WeatherDisplay:10.37,2014-12-26 11:09:00,
2014-12-26 03:14:00,43.7,35.6,30.12,NW,304,7.0,10.4,73,0.00,CLR,,0.00,0.0,WeatherDisplay:10.37,2014-12-26 11:14:00,
2014-12-26 03:19:00,43.6,35.2,30.12,WNW,299,8.0,10.4,72,0.00,CLR,,0.00,0.0,WeatherDisplay:10.37,2014-12-26 11:19:00,
2014-12-26 03:24:00,43.5,35.1,30.12,WNW,302,8.6,11.5,72,0.00,CLR,,0.00,0.0,WeatherDisplay:10.37,2014-12-26 11:24:00,
2014-12-26 03:29:00,43.4,34.6,30.12,WNW,289,8.4,10.4,71,0.00,CLR,,0.00,0.0,WeatherDisplay:10.37,2014-12-26 11:29:00,
2014-12-26 03:34:00,43.4,34.6,30.12,WNW,301,6.3,9.2,71,0.00,CLR,,0.00,0.0,WeatherDisplay:10.37,2014-12-26 11:34:00,
2014-12-26 03:39:00,43.4,34.6,30.12,WNW,292,7.6,8.1,71,0.00,CLR,,0.00,0.0,WeatherDisplay:10.37,2014-12-26 11:39:00,
2014-12-26 03:44:00,43.4,34.3,30.12,WNW,291,8.4,11.5,70,0.00,CLR,,0.00,0.0,WeatherDisplay:10.37,2014-12-26 11:44:00,
2014-12-26 03:49:00,43.4,34.3,30.12,WNW,288,7.5,9.2,70,0.00,CLR,,0.00,0.0,WeatherDisplay:10.37,2014-12-26 11:49:00,
2014-12-26 03:54:00,43.5,34.0,30.12,West,266,8.0,10.4,69,0.00,CLR,,0.00,0.0,WeatherDisplay:10.37,2014-12-26 11:54:00,
2014-12-26 03:59:00,43.5,34.0,30.13,WNW,290,8.7,10.4,69,0.00,CLR,,0.00,0.0,WeatherDisplay:10.37,2014-12-26 11:59:00,
2014-12-26 04:04:00,43.5,34.0,30.13,WNW,284,7.3,10.4,69,0.00,CLR,,0.00,0.0,WeatherDisplay:10.37,2014-12-26 12:04:00,
2014-12-26 04:09:00,43.6,34.1,30.13,WNW,300,6.8,10.4,69,0.00,CLR,,0.00,0.0,WeatherDisplay:10.37,2014-12-26 12:09:00,
2014-12-26 04:14:00,43.6,34.1,30.13,WNW,302,6.5,8.1,69,0.00,CLR,,0.00,0.0,WeatherDisplay:10.37,2014-12-26 12:14:00,
2014-12-26 04:19:00,43.5,34.0,30.13,NW,311,6.0,9.2,69,0.00,CLR,,0.00,0.0,WeatherDisplay:10.37,2014-12-26 12:19:00,
2014-12-26 04:24:00,43.4,34.3,30.13,NW,308,6.2,10.4,70,0.00,CLR,,0.00,0.0,WeatherDisplay:10.37,2014-12-26 12:24:00,
2014-12-26 04:29:00,43.3,34.2,30.13,WNW,300,5.2,6.9,70,0.00,CLR,,0.00,0.0,WeatherDisplay:10.37,2014-12-26 12:29:00,
2014-12-26 04:34:00,43.2,34.1,30.13,WNW,295,4.6,5.0,70,0.00,CLR,,0.00,0.0,WeatherDisplay:10.37,2014-12-26 12:34:00,
2014-12-26 04:39:00,43.2,33.7,30.13,NW,318,4.6,10.0,69,0.00,CLR,,0.00,0.0,WeatherDisplay:10.37,2014-12-26 12:39:00,
2014-12-26 04:44:00,43.2,34.1,30.13,WNW,296,5.0,7.0,70,0.00,CLR,,0.00,0.0,WeatherDisplay:10.37,2014-12-26 12:44:00,
2014-12-26 04:49:00,43.2,33.7,30.14,NW,316,6.3,9.2,69,0.00,CLR,,0.00,0.0,WeatherDisplay:10.37,2014-12-26 12:49:00,
2014-12-26 04:54:00,43.2,34.1,30.13,NW,317,5.5,8.1,70,0.00,CLR,,0.00,0.0,WeatherDisplay:10.37,2014-12-26 12:54:00,
2014-12-26 04:59:00,43.2,33.7,30.13,NW,318,8.3,11.5,69,0.00,CLR,,0.00,0.0,WeatherDisplay:10.37,2014-12-26 12:59:00,
2014-12-26 05:04:00,43.3,33.4,30.13,NW,314,5.1,9.2,68,0.00,CLR,,0.00,0.0,WeatherDisplay:10.37,2014-12-26 13:04:00,
2014-12-26 05:09:00,43.4,33.5,30.13,NW,320,5.3,11.5,68,0.00,CLR,,0.00,0.0,WeatherDisplay:10.37,2014-12-26 13:09:00,
2014-12-26 05:14:00,43.4,33.5,30.14,WNW,300,5.5,7.0,68,0.00,CLR,,0.00,0.0,WeatherDisplay:10.37,2014-12-26 13:14:00,
2014-12-26 05:19:00,43.3,33.4,30.14,WNW,295,5.0,8.1,68,0.00,CLR,,0.00,0.0,WeatherDisplay:10.37,2014-12-26 13:19:00,
2014-12-26 05:24:00,43.3,33.4,30.14,WNW,302,5.9,9.2,68,0.00,CLR,,0.00,0.0,WeatherDisplay:10.37,2014-12-26 13:24:00,
2014-12-26 05:29:00,43.3,33.1,30.14,NW,316,5.1,10.4,67,0.00,CLR,,0.00,0.0,WeatherDisplay:10.37,2014-12-26 13:29:00,
2014-12-26 05:34:00,43.3,33.4,30.14,NW,321,4.9,8.1,68,0.00,CLR,,0.00,0.0,WeatherDisplay:10.37,2014-12-26 13:34:00,
2014-12-26 05:39:00,43.3,33.4,30.14,NW,309,8.1,11.5,68,0.00,CLR,,0.00,0.0,WeatherDisplay:10.37,2014-12-26 13:39:00,
2014-12-26 05:44:00,43.3,33.1,30.14,NW,305,6.1,9.2,67,0.00,CLR,,0.00,0.0,WeatherDisplay:10.37,2014-12-26 13:44:00,
2014-12-26 05:49:00,43.3,33.1,30.14,NW,310,4.4,8.1,67,0.00,CLR,,0.00,0.0,WeatherDisplay:10.37,2014-12-26 13:49:00,
2014-12-26 05:54:00,43.2,33.0,30.14,NW,321,2.8,3.5,67,0.00,CLR,,0.00,0.0,WeatherDisplay:10.37,2014-12-26 13:54:00,
2014-12-26 05:59:00,43.0,32.8,30.14,NNW,341,2.5,3.5,67,0.00,CLR,,0.00,0.0,WeatherDisplay:10.37,2014-12-26 13:59:00,
2014-12-26 06:04:00,42.8,32.6,30.14,NW,314,1.5,1.5,67,0.00,CLR,,0.00,0.0,WeatherDisplay:10.37,2014-12-26 14:04:00,
2014-12-26 06:09:00,42.6,32.8,30.14,NW,316,0.8,2.3,68,0.00,CLR,,0.00,0.0,WeatherDisplay:10.37,2014-12-26 14:09:00,
2014-12-26 06:14:00,42.4,32.2,30.15,NW,318,0.8,2.3,67,0.00,CLR,,0.00,0.0,WeatherDisplay:10.37,2014-12-26 14:14:00,
2014-12-26 06:19:00,42.3,32.5,30.15,NW,318,1.0,2.3,68,0.00,CLR,,0.00,0.0,WeatherDisplay:10.37,2014-12-26 14:19:00,
2014-12-26 06:24:00,42.1,32.3,30.15,North,3,1.6,3.5,68,0.00,CLR,,0.00,0.0,WeatherDisplay:10.37,2014-12-26 14:24:00,
2014-12-26 06:29:00,42.0,32.6,30.15,NNW,337,2.2,3.5,69,0.00,CLR,,0.00,0.0,WeatherDisplay:10.37,2014-12-26 14:29:00,
2014-12-26 06:34:00,42.0,32.2,30.15,NNW,345,0.0,1.2,68,0.00,CLR,,0.00,0.0,WeatherDisplay:10.37,2014-12-26 14:34:00,
2014-12-26 06:39:00,42.2,32.4,30.15,NNW,345,1.0,2.3,68,0.00,CLR,,0.00,0.0,WeatherDisplay:10.37,2014-12-26 14:39:00,
2014-12-26 06:44:00,42.4,32.6,30.16,NNE,33,4.1,4.1,68,0.00,CLR,,0.00,0.0,WeatherDisplay:10.37,2014-12-26 14:44:00,
2014-12-26 06:49:00,42.5,32.3,30.16,NNW,330,2.0,4.6,67,0.00,CLR,,0.00,0.0,WeatherDisplay:10.37,2014-12-26 14:49:00,
2014-12-26 06:54:00,42.4,31.8,30.16,NW,322,1.0,3.0,66,0.00,CLR,,0.00,0.0,WeatherDisplay:10.37,2014-12-26 14:54:00,
2014-12-26 06:59:00,42.4,31.5,30.16,North,349,4.4,6.9,65,0.00,CLR,,0.00,0.0,WeatherDisplay:10.37,2014-12-26 14:59:00,
2014-12-26 07:04:00,42.5,31.6,30.16,NW,325,1.9,6.9,65,0.00,CLR,,0.00,0.0,WeatherDisplay:10.37,2014-12-26 15:04:00,
2014-12-26 07:09:00,42.5,30.8,30.16,North,8,2.9,5.8,63,0.00,CLR,,0.00,0.0,WeatherDisplay:10.37,2014-12-26 15:09:00,
2014-12-26 07:14:00,42.5,30.8,30.16,NNW,347,5.1,7.0,63,0.00,CLR,,0.00,0.0,WeatherDisplay:10.37,2014-12-26 15:14:00,
2014-12-26 07:19:00,42.6,30.9,30.17,North,360,2.0,6.9,63,0.00,CLR,,0.00,0.0,WeatherDisplay:10.37,2014-12-26 15:19:00,
2014-12-26 07:24:00,42.6,31.3,30.17,NW,322,2.2,3.5,64,0.00,CLR,,0.00,5.0,WeatherDisplay:10.37,2014-12-26 15:24:00,
2014-12-26 07:29:00,42.6,31.3,30.17,NW,322,2.4,3.0,64,0.00,CLR,,0.00,7.0,WeatherDisplay:10.37,2014-12-26 15:29:00,
2014-12-26 07:34:00,42.5,31.6,30.17,WNW,291,0.5,3.5,65,0.00,CLR,,0.00,9.0,WeatherDisplay:10.37,2014-12-26 15:34:00,
2014-12-26 07:39:00,42.4,31.5,30.17,NW,324,2.0,3.5,65,0.00,CLR,,0.00,11.0,WeatherDisplay:10.37,2014-12-26 15:39:00,
2014-12-26 07:44:00,42.4,31.1,30.17,NNW,341,2.4,6.9,64,0.00,CLR,,0.00,12.0,WeatherDisplay:10.37,2014-12-26 15:44:00,
2014-12-26 07:49:00,42.4,31.5,30.17,NW,306,3.5,5.0,65,0.00,CLR,,0.00,14.0,WeatherDisplay:10.37,2014-12-26 15:49:00,
2014-12-26 07:54:00,42.4,31.1,30.17,North,351,2.0,5.8,64,0.00,CLR,,0.00,16.0,WeatherDisplay:10.37,2014-12-26 15:54:00,
2014-12-26 07:59:00,42.4,31.1,30.17,NW,318,0.4,3.0,64,0.00,CLR,,0.00,18.0,WeatherDisplay:10.37,2014-12-26 15:59:00,
2014-12-26 08:04:00,42.5,31.6,30.17,WNW,291,3.2,3.5,65,0.00,CLR,,0.00,28.0,WeatherDisplay:10.37,2014-12-26 16:04:00,
2014-12-26 08:09:00,42.6,31.3,30.17,NW,314,2.7,8.1,64,0.00,CLR,,0.00,81.0,WeatherDisplay:10.37,2014-12-26 16:09:00,
2014-12-26 08:14:00,43.0,31.6,30.18,NNW,328,2.2,4.6,64,0.00,CLR,,0.00,98.0,WeatherDisplay:10.37,2014-12-26 16:14:00,
2014-12-26 08:19:00,43.7,31.9,30.18,WNW,299,3.3,4.0,63,0.00,CLR,,0.00,111.0,WeatherDisplay:10.37,2014-12-26 16:19:00,
2014-12-26 08:24:00,44.5,32.7,30.18,WNW,297,3.6,4.6,63,0.00,CLR,,0.00,128.0,WeatherDisplay:10.37,2014-12-26 16:24:00,
2014-12-26 08:29:00,45.3,32.6,30.18,NW,314,3.9,5.0,61,0.00,CLR,,0.00,146.0,WeatherDisplay:10.37,2014-12-26 16:29:00,
2014-12-26 08:34:00,46.1,33.0,30.18,NW,311,2.4,3.5,60,0.00,CLR,,0.00,163.0,WeatherDisplay:10.37,2014-12-26 16:34:00,
2014-12-26 08:39:00,46.8,32.8,30.19,NW,314,2.7,4.6,58,0.00,CLR,,0.00,181.0,WeatherDisplay:10.37,2014-12-26 16:39:00,
2014-12-26 08:44:00,47.4,32.9,30.19,NW,320,3.6,4.6,57,0.00,CLR,,0.00,199.0,WeatherDisplay:10.37,2014-12-26 16:44:00,
2014-12-26 08:49:00,47.9,32.9,30.20,NW,322,2.5,10.4,56,0.00,CLR,,0.00,214.0,WeatherDisplay:10.37,2014-12-26 16:49:00,
2014-12-26 08:54:00,48.3,32.4,30.20,NW,323,3.9,6.9,54,0.00,CLR,,0.00,227.0,WeatherDisplay:10.37,2014-12-26 16:54:00,
2014-12-26 08:59:00,48.8,32.9,30.20,NNW,345,4.9,7.0,54,0.00,CLR,,0.00,241.0,WeatherDisplay:10.37,2014-12-26 16:59:00,
2014-12-26 09:04:00,49.2,32.8,30.20,North,11,6.2,9.2,53,0.00,CLR,,0.00,253.0,WeatherDisplay:10.37,2014-12-26 17:04:00,
2014-12-26 09:09:00,49.5,32.6,30.20,NW,318,3.5,7.0,52,0.00,CLR,,0.00,267.0,WeatherDisplay:10.37,2014-12-26 17:09:00,
2014-12-26 09:14:00,49.8,32.9,30.20,NW,324,1.4,3.0,52,0.00,CLR,,0.00,279.0,WeatherDisplay:10.37,2014-12-26 17:14:00,
2014-12-26 09:19:00,50.2,32.8,30.20,WNW,301,3.9,5.8,51,0.00,CLR,,0.00,292.0,WeatherDisplay:10.37,2014-12-26 17:19:00,
2014-12-26 09:24:00,50.6,33.6,30.21,NW,310,3.4,6.0,52,0.00,CLR,,0.00,306.0,WeatherDisplay:10.37,2014-12-26 17:24:00,
2014-12-26 09:29:00,51.1,34.1,30.21,NW,314,2.4,3.5,52,0.00,CLR,,0.00,316.0,WeatherDisplay:10.37,2014-12-26 17:29:00,
2014-12-26 09:34:00,51.4,33.4,30.21,NW,326,1.5,3.5,50,0.00,CLR,,0.00,327.0,WeatherDisplay:10.37,2014-12-26 17:34:00,
2014-12-26 09:39:00,51.9,34.3,30.22,WNW,303,1.7,8.1,51,0.00,CLR,,0.00,339.0,WeatherDisplay:10.37,2014-12-26 17:39:00,
2014-12-26 09:44:00,52.0,33.4,30.22,NW,313,6.1,8.1,49,0.00,CLR,,0.00,350.0,WeatherDisplay:10.37,2014-12-26 17:44:00,
2014-12-26 09:49:00,52.3,34.2,30.22,NW,326,1.7,3.5,50,0.00,CLR,,0.00,360.0,WeatherDisplay:10.37,2014-12-26 17:49:00,
2014-12-26 09:54:00,52.7,35.1,30.22,NW,312,4.2,4.2,51,0.00,CLR,,0.00,371.0,WeatherDisplay:10.37,2014-12-26 17:54:00,
2014-12-26 09:59:00,52.9,35.2,30.22,NW,307,3.5,8.0,51,0.00,CLR,,0.00,381.0,WeatherDisplay:10.37,2014-12-26 17:59:00,
2014-12-26 10:04:00,53.0,33.8,30.22,NNW,329,4.0,6.9,48,0.00,CLR,,0.00,388.0,WeatherDisplay:10.37,2014-12-26 18:04:00,
2014-12-26 10:09:00,53.0,33.3,30.22,NW,313,6.9,9.2,47,0.00,CLR,,0.00,399.0,WeatherDisplay:10.37,2014-12-26 18:09:00,
2014-12-26 10:14:00,52.9,33.2,30.22,North,353,2.6,6.9,47,0.00,CLR,,0.00,408.0,WeatherDisplay:10.37,2014-12-26 18:14:00,
2014-12-26 10:19:00,53.1,34.4,30.22,NNW,329,4.4,8.0,49,0.00,CLR,,0.00,418.0,WeatherDisplay:10.37,2014-12-26 18:19:00,
2014-12-26 10:24:00,53.4,33.7,30.22,NW,324,6.4,8.0,47,0.00,CLR,,0.00,425.0,WeatherDisplay:10.37,2014-12-26 18:24:00,
2014-12-26 10:29:00,53.6,33.3,30.22,NW,311,2.6,9.2,46,0.00,CLR,,0.00,436.0,WeatherDisplay:10.37,2014-12-26 18:29:00,
2014-12-26 10:34:00,53.6,32.8,30.22,NW,318,9.4,16.1,45,0.00,CLR,,0.00,441.0,WeatherDisplay:10.37,2014-12-26 18:34:00,
2014-12-26 10:39:00,53.6,33.3,30.22,NNW,345,3.0,8.0,46,0.00,CLR,,0.00,450.0,WeatherDisplay:10.37,2014-12-26 18:39:00,
2014-12-26 10:44:00,53.6,33.3,30.21,NW,323,6.2,11.5,46,0.00,CLR,,0.00,455.0,WeatherDisplay:10.37,2014-12-26 18:44:00,
2014-12-26 10:49:00,53.6,32.8,30.21,NNW,330,5.1,9.2,45,0.00,CLR,,0.00,464.0,WeatherDisplay:10.37,2014-12-26 18:49:00,
2014-12-26 10:54:00,53.5,31.5,30.21,NNE,13,2.8,8.1,43,0.00,CLR,,0.00,469.0,WeatherDisplay:10.37,2014-12-26 18:54:00,